ATLAS 5 CENTAUR DEB, 53520

Orbit data source: Space-Track

ATLAS 5 CENTAUR DEB, 53520 is space debris in HEO originally from a launch on Wed, 17 Oct 2018 UTC launched from the Air Force Eastern Test Range (AFETR). Debris objects in space refer to the collection of defunct objects orbiting the Earth. Examples of debris include non-operational satellites, rocket bodies, and fragments generated from explosions, collisions, or faulty payload assembly.

Loading next visibility...
Identifier
53520, 2018-079HB
Orbit
HEO
Country
Flag of USUS
Related business
Flag of USUnited Launch Alliance/Lockheed Martin (US)
Manufacturer
ULA Decatur
Mission
Spacecraft
Bus & Motor
Unknown
Mass
Unknown
Launch date (UTC)
2018-10-17 (8 years ago)
Launch vehicle
Unknown
Launch site
Air Force Eastern Test Range (AFETR)
Object type
Payload
Rocket body
Debris
Shape & HBR
Unknown shape, 1.1 m
Radar Cross Section
Medium (>0.1 m² and <1 m²)

Expand to show TLE details & history
Last TLE update: 1 day ago

TLE from 1 day ago
0 ATLAS 5 CENTAUR DEB
1 53520U 18079HB  26150.47169234 -.00000108  00000-0  00000+0 0  9999
2 53520  13.5532  37.2802 4680023 306.0338  19.1203  1.80116021 30216
Epoch: 2026-05-30T11:19Z
TLE epoch observation values (Epoch: 2026-05-30T11:19:14.218Z)
Latitude
0.00007°
Longitude
-20.5893°
Altitude
11,124.951 km
Speed
5.619 km/s
True Right ascension
02h 28m 49s
True Declination
0° 00' 00"
Sunlit
Object was in daylight at epoch
Visualization orbit readout
Latitude
Unknown
Longitude
Unknown
Altitude
Unknown
Speed
Unknown
Apparent Right ascension
Unknown
Apparent Declination
Unknown
Sunlit
N/A
Visualization observer readout
Local Sidereal Time
23:38:30
Azimuth
Unknown
Elevation
Unknown
Doppler factor
Unknown
Orbital elements
Apogee altitude
35,513.293 km
Perigee altitude
8,803.136 km
Semi-major axis
28,536.351 km
Eccentricity
0.468
Inclination
13.5532°
RAAN
37.2802°
Arg. of periapsis
306.0338°
True anomaly
54.11926°
Mean anomaly
19.1203°
Eccentric anomaly
34.18746°
Mean motion
0.45024 °/min
Orbital period
799.57 mins
BSTAR
0
Loading maneuver chart data...
Computing Atmospheric mass density...

Documentation

Showing up to 5 results
|